Temperature
-10 -10 -11 -11 -12 -12 -12 -12 -13 -13 -13 -13 -13 -13 -13 -12 -12 -11 -10 -9 -9 -8 -8 -7 -7 -7 -6 -5 -4 -3 -2 -2 -1 1 3 5 6 7 7 8 9 9 10
-10 -11 -11 -12 -12 -12 -13 -13 -13 -13 -13 -13 -14 -14 -13 -13 -12 -11 -10 -9 -9 -8 -8 -8 -7 -7 -6 -5 -4 -3 -2 -1 0 1 2 4 5 6 6 7 8 9 9
-11 -11 -12 -12 -12 -13 -13 -13 -14 -14 -14 -14 -14 -14 -14 -13 -12 -11 -10 -9 -9 -9 -8 -8 -7 -7 -6 -5 -4 -3 -2 -1 -0 1 2 3 3 5 6 6 7 8 9
-11 -11 -12 -12 -13 -13 -14 -14 -14 -14 -14 -14 -14 -14 -14 -13 -12 -11 -10 -9 -8 -8 -8 -8 -7 -7 -6 -5 -4 -3 -2 -1 -1 -0 1 2 3 4 5 6 6 7 8
-11 -12 -12 -12 -13 -14 -14 -14 -15 -14 -14 -14 -14 -14 -13 -13 -12 -10 -9 -8 -9 -9 -9 -8 -8 -7 -7 -6 -5 -4 -3 -2 -1 -1 0 1 2 3 4 5 6 6 7
-11 -12 -12 -13 -13 -14 -14 -14 -15 -14 -14 -14 -14 -14 -13 -13 -12 -10 -9 -9 -9 -9 -9 -9 -9 -8 -8 -7 -7 -6 -4 -3 -3 -2 -1 0 1 2 3 4 5 6 6
-11 -12 -13 -13 -14 -14 -14 -14 -14 -14 -14 -14 -14 -14 -13 -13 -11 -9 -9 -9 -9 -9 -9 -9 -9 -9 -9 -8 -8 -7 -7 -6 -5 -4 -2 -1 -0 1 2 3 4 5 6
-12 -12 -13 -14 -14 -14 -14 -14 -14 -14 -14 -14 -14 -14 -13 -13 -11 -10 -10 -10 -10 -10 -10 -10 -10 -10 -10 -10 -9 -8 -8 -7 -7 -6 -5 -4 -3 -2 1 2 3 4 5
-12 -12 -13 -14 -14 -14 -14 -14 -14 -14 -14 -14 -14 -14 -13 -13 -12 -10 -11 -10 -10 -11 -10 -10 -10 -10 -10 -10 -10 -10 -8 -7 -7 -7 -6 -5 -4 -2 0 2 3 4 4
-12 -12 -13 -14 -14 -14 -14 -14 -14 -14 -14 -14 -14 -13 -13 -13 -12 -11 -11 -11 -12 -12 -11 -11 -11 -11 -10 -10 -11 -11 -10 -9 -7 -6 -5 -4 -3 -2 -0 1 2 3 3
-12 -12 -13 -13 -14 -13 -13 -13 -13 -14 -14 -14 -14 -13 -13 -13 -13 -12 -12 -12 -12 -13 -12 -12 -12 -11 -11 -11 -11 -11 -12 -10 -9 -8 -7 -6 -5 -4 -2 -1 0 1 2
-12 -12 -13 -13 -13 -13 -14 -14 -13 -13 -14 -14 -14 -14 -13 -13 -13 -13 -12 -13 -13 -13 -13 -13 -12 -12 -12 -12 -12 -12 -11 -10 -10 -9 -8 -8 -8 -7 -6 -4 -2 -1 1
-11 -12 -12 -13 -13 -13 -14 -14 -14 -13 -13 -14 -14 -14 -14 -14 -13 -13 -14 -14 -14 -14 -14 -13 -13 -13 -13 -13 -13 -12 -11 -11 -11 -11 -11 -11 -10 -9 -8 -6 -4 -3 -1
-11 -12 -12 -13 -13 -13 -14 -14 -13 -13 -13 -14 -14 -14 -14 -14 -13 -14 -14 -14 -14 -14 -14 -14 -14 -14 -14 -14 -13 -13 -13 -13 -12 -12 -12 -12 -10 -9 -8 -7 -6 -4 -3
-11 -12 -12 -13 -13 -13 -14 -14 -13 -13 -13 -14 -14 -15 -14 -14 -13 -14 -14 -14 -14 -14 -14 -14 -14 -14 -14 -14 -14 -14 -14 -13 -13 -12 -12 -12 -11 -11 -10 -9 -8 -7 -6
-11 -12 -12 -13 -13 -13 -14 -14 -14 -14 -14 -14 -14 -14 -14 -14 -14 -14 -14 -14 -14 -14 -15 -15 -15 -15 -15 -15 -15 -15 -15 -15 -14 -14 -13 -12 -12 -11 -11 -11 -10 -9 -9
-11 -11 -12 -12 -13 -13 -14 -14 -15 -14 -15 -14 -14 -14 -14 -14 -14 -14 -14 -14 -14 -14 -15 -15 -15 -15 -15 -15 -15 -15 -15 -15 -15 -14 -14 -13 -12 -12 -11 -11 -11 -11 -11
-10 -11 -12 -12 -13 -13 -13 -14 -14 -15 -15 -15 -14 -14 -14 -14 -14 -14 -14 -14 -14 -14 -15 -15 -15 -15 -15 -15 -15 -15 -16 -15 -15 -15 -14 -14 -13 -13 -12 -12 -11 -11 -10
-9 -10 -11 -11 -12 -12 -12 -13 -13 -14 -15 -15 -15 -14 -14 -14 -14 -14 -14 -14 -14 -14 -14 -15 -15 -15 -15 -15 -15 -15 -15 -15 -15 -15 -15 -14 -14 -14 -13 -13 -12 -12 -11
-9 -9 -10 -10 -11 -12 -12 -12 -12 -13 -14 -14 -14 -15 -14 -14 -14 -14 -14 -14 -14 -14 -14 -14 -14 -14 -15 -15 -15 -15 -14 -14 -14 -14 -14 -14 -14 -14 -14 -14 -13 -13 -12
-8 -9 -9 -9 -10 -11 -12 -12 -12 -12 -13 -13 -13 -14 -14 -14 -14 -14 -14 -14 -14 -14 -14 -14 -14 -14 -14 -14 -14 -14 -14 -14 -14 -14 -14 -14 -14 -14 -14 -14 -14 -14 -13
-8 -8 -9 -9 -9 -10 -11 -11 -11 -11 -12 -12 -12 -12 -13 -13 -13 -13 -13 -13 -13 -13 -13 -14 -14 -14 -14 -14 -14 -14 -14 -14 -14 -14 -14 -14 -14 -14 -14 -14 -14 -14 -14
-8 -8 -8 -9 -9 -9 -10 -10 -10 -11 -11 -11 -11 -11 -12 -12 -12 -13 -13 -13 -13 -13 -13 -13 -13 -13 -13 -13 -13 -13 -13 -13 -13 -13 -14 -14 -14 -14 -14 -14 -14 -14 -14
-7 -8 -8 -8 -9 -9 -9 -10 -10 -10 -10 -10 -10 -10 -10 -11 -11 -11 -12 -12 -12 -13 -13 -13 -13 -13 -13 -13 -13 -13 -13 -13 -13 -13 -13 -13 -13 -14 -14 -14 -14 -14 -14
-7 -7 -8 -8 -8 -9 -9 -9 -10 -10 -10 -10 -10 -10 -10 -10 -10 -10 -10 -11 -11 -12 -12 -12 -12 -12 -12 -12 -12 -12 -12 -13 -13 -13 -13 -13 -13 -13 -13 -14 -14 -14 -14
-6 -7 -7 -7 -8 -8 -9 -9 -10 -10 -11 -11 -11 -10 -10 -10 -10 -10 -10 -10 -10 -10 -10 -11 -11 -12 -12 -12 -12 -12 -12 -12 -12 -13 -13 -13 -13 -13 -13 -13 -14 -14 -14
Wind_Speed
10 10 11 11 10 11 8 9 11 13 15 14 14 13 15 16 14 15 17 18 19 16 13 13 14 14 13 12 12 13 14 15 16 12 10 10 9 8 5 2 4 5 7
10 10 11 11 9 11 11 11 16 14 15 16 16 14 17 17 16 17 18 18 19 15 13 14 14 13 15 13 12 12 12 12 11 11 8 8 8 6 6 5 4 4 5
10 11 11 11 11 12 13 13 17 15 12 14 13 15 17 17 17 17 16 18 18 13 12 13 14 15 14 13 13 11 10 9 6 7 7 6 6 5 5 4 4 4 3
10 10 11 11 11 12 13 15 16 15 12 11 10 13 16 17 17 17 16 17 13 9 10 12 13 14 14 15 11 9 8 7 6 6 7 5 5 5 4 4 4 4 3
10 9 9 10 11 12 14 14 14 14 15 11 12 14 16 16 15 19 17 11 6 7 8 11 14 18 21 18 14 14 11 5 4 5 5 4 3 3 4 4 5 4 2
9 9 9 10 11 12 14 14 14 13 12 12 13 15 16 17 27 28 13 7 7 8 9 11 15 17 21 25 26 25 24 15 9 5 3 3 3 4 4 4 5 5 4
10 9 9 9 11 13 15 14 12 11 11 11 13 14 15 19 30 25 20 13 11 10 11 11 13 16 19 16 21 24 23 27 23 13 9 8 7 6 7 6 6 6 4
10 9 10 10 11 11 11 12 10 9 9 9 11 13 14 19 29 26 23 14 11 11 12 14 14 15 18 18 16 17 17 18 20 14 12 12 12 11 7 6 4 6 6
10 11 11 11 11 11 11 11 10 9 9 8 10 11 13 17 27 27 23 12 11 12 13 15 17 16 25 26 18 16 16 17 21 25 24 21 24 25 19 6 3 12 9
12 12 12 11 11 11 11 11 10 9 9 10 10 10 12 13 23 26 23 12 12 11 11 14 21 23 27 26 17 16 16 16 17 18 19 22 19 22 27 17 8 6 10
12 12 12 11 11 11 9 9 10 10 10 9 10 10 10 13 20 25 25 10 10 10 10 10 12 25 27 27 22 16 19 16 14 15 15 15 16 15 17 17 15 7 4
12 12 11 11 12 12 10 9 10 10 8 8 8 8 8 10 17 20 25 21 16 10 9 8 12 24 24 26 21 23 25 20 12 13 13 15 15 15 13 15 16 15 13
12 11 10 12 10 9 9 9 9 9 6 7 8 9 8 7 11 20 22 22 21 11 9 17 20 22 21 17 24 26 20 14 13 13 13 13 12 14 14 13 15 14 18
13 10 11 11 10 9 10 10 9 9 8 7 8 8 8 8 7 6 7 10 14 11 10 15 20 21 18 19 19 17 14 14 13 12 12 11 11 12 14 14 14 13 13
11 9 11 12 10 8 10 10 11 8 12 10 6 5 6 7 11 16 11 7 6 9 9 9 9 11 12 12 12 12 12 13 13 12 12 12 12 12 13 13 13 13 13
10 9 9 9 9 8 7 10 18 18 20 20 16 11 9 14 16 16 15 16 18 19 11 6 9 10 11 11 11 11 11 11 11 11 11 11 11 11 11 11 12 12 12
8 8 8 9 9 9 9 9 10 13 19 19 18 16 13 14 15 15 14 15 16 16 7 5 5 6 7 8 8 7 7 8 8 8 9 9 9 9 10 11 10 10 11
8 11 11 7 7 7 7 8 8 9 8 8 12 18 16 14 13 13 14 11 9 8 4 4 4 5 5 5 6 6 5 5 5 5 6 6 7 8 8 9 9 9 9
8 7 6 6 6 6 6 6 7 7 7 6 5 9 15 13 13 12 11 5 5 5 5 5 4 4 4 4 4 4 5 4 4 4 5 5 5 5 6 7 7 11 9
7 14 12 7 7 6 5 5 6 6 7 6 6 6 6 6 5 6 5 4 4 4 5 5 5 5 4 4 4 4 4 4 5 4 4 4 4 4 4 5 5 5 5
6 8 14 9 6 7 6 5 6 6 6 7 6 9 13 4 5 6 5 5 4 4 5 5 5 5 4 3 3 4 4 4 4 4 3 3 3 3 3 3 3 4 4
5 5 6 6 6 7 7 6 6 6 7 8 8 9 15 6 5 6 6 6 5 4 5 4 5 3 4 3 3 3 3 3 3 3 3 3 3 2 2 2 2 2 2
6 6 6 7 6 11 10 7 7 7 7 8 8 9 8 7 7 7 7 7 5 7 10 9 6 6 9 9 8 6 5 5 4 3 3 3 3 3 2 2 2 1 1
6 6 7 7 8 8 9 9 9 9 9 9 9 9 9 8 9 10 9 7 8 10 11 12 11 11 13 12 12 12 11 11 11 9 7 5 5 4 3 3 3 3 3
5 6 6 7 9 10 10 11 11 12 12 11 10 10 10 10 10 11 10 9 10 10 13 14 14 14 16 16 15 15 15 15 14 12 10 8 6 6 5 4 4 3 3
5 6 6 7 8 10 10 11 11 12 12 12 12 11 11 11 11 11 11 10 10 10 13 14 16 18 19 19 20 20 20 19 18 15 11 9 6 6 6 5 6 5 4
Wind_Direction
332 328 324 322 324 326 324 323 323 322 325 327 330 332 329 323 321 317 318 317 316 310 312 314 308 302 296 290 278 263 250 245 253 265 273 281 293 305 305 289 266 234 225
329 327 324 326 327 328 328 327 326 322 325 331 331 330 328 324 318 315 316 319 317 317 321 318 314 311 302 294 286 277 263 247 247 258 265 265 260 264 253 236 243 231 215
332 327 326 328 328 329 329 328 325 322 326 330 330 329 326 319 314 310 308 312 312 311 316 320 320 316 312 306 292 279 274 265 259 267 270 259 253 246 235 226 227 221 203
331 324 325 325 327 328 328 325 323 325 326 325 328 326 320 315 308 302 302 305 308 316 327 331 327 327 333 332 327 318 288 267 259 264 268 262 255 247 218 207 211 205 187
319 317 316 319 322 324 323 321 325 328 328 323 324 320 317 315 311 310 304 310 336 337 343 351 348 356 3 3 5 0 352 326 286 264 264 265 259 244 223 197 194 173 139
313 312 315 320 323 323 323 328 331 328 324 326 322 318 318 323 322 330 8 35 17 6 12 11 3 3 13 10 14 18 20 22 15 4 350 343 341 318 285 224 184 166 178
315 316 320 319 321 324 331 331 326 324 324 324 321 320 321 323 334 355 32 30 20 24 23 21 15 10 22 14 12 17 19 25 33 33 26 13 353 338 323 277 214 171 152
323 328 325 322 320 325 327 322 321 321 320 317 319 324 328 334 345 10 28 22 24 25 22 22 20 12 24 24 15 18 18 18 22 27 26 20 10 359 332 290 257 130 103
334 334 332 327 326 327 325 323 324 323 320 317 321 328 334 339 350 17 30 16 26 24 19 17 21 19 24 28 19 19 21 17 15 21 25 27 25 22 22 7 197 160 147
338 336 332 328 327 324 323 324 322 324 327 328 329 331 335 338 354 16 36 27 26 22 15 11 16 23 24 30 24 19 24 18 11 11 17 19 21 23 27 23 348 181 150
335 331 328 329 328 325 324 323 325 329 331 333 338 336 334 352 358 9 25 34 26 16 12 6 10 22 24 28 30 26 28 26 18 16 16 17 18 22 26 25 17 14 109
331 328 331 332 334 343 338 337 336 335 337 343 346 348 344 359 3 8 17 21 29 17 5 359 11 23 24 26 29 28 29 27 23 23 22 20 17 15 17 25 27 31 42
331 331 337 333 333 342 345 342 341 337 340 359 359 0 353 5 2 16 20 18 19 19 8 14 19 23 24 23 26 28 26 25 24 27 24 20 16 14 18 24 26 32 42
332 337 343 338 338 344 354 351 345 344 358 14 5 360 351 353 353 7 21 16 13 16 14 16 20 23 27 25 26 26 24 27 28 24 21 17 17 23 28 28 30 28 43
333 343 347 343 337 348 358 355 356 358 15 16 4 352 350 354 17 27 28 13 11 33 28 18 17 17 19 20 22 24 24 23 27 23 20 21 24 29 34 35 37 38 45
342 352 348 342 346 354 357 356 5 11 16 18 22 23 4 11 24 25 22 21 27 31 30 21 22 19 17 16 18 20 22 24 23 25 25 24 25 29 35 41 45 45 46
341 345 344 344 345 354 0 358 356 2 13 15 16 19 17 12 17 16 16 18 21 26 25 10 9 9 11 10 10 10 16 20 17 21 25 23 27 32 38 42 47 53 54
340 345 350 335 339 347 353 353 352 353 353 355 0 3 6 7 7 8 13 15 6 12 5 4 2 359 1 3 2 0 358 7 12 18 22 22 26 33 41 44 46 52 60
342 336 338 334 335 341 342 345 344 345 344 338 334 347 360 2 2 4 10 5 343 346 349 352 353 354 353 353 354 353 351 356 9 19 27 25 24 34 40 39 44 59 60
337 347 355 345 334 333 334 336 336 336 334 331 329 324 333 351 344 343 344 330 332 331 334 336 336 337 341 347 342 341 343 350 2 12 13 23 24 31 41 47 47 52 52
324 331 347 343 331 329 327 327 322 323 324 325 320 325 344 344 323 317 318 316 313 311 308 308 309 314 319 327 338 342 341 338 346 352 353 2 14 21 25 35 39 50 60
318 319 323 323 327 331 335 322 315 312 315 317 315 319 332 327 300 298 299 298 294 282 284 278 281 274 278 269 272 282 296 303 308 319 335 340 339 337 345 359 12 27 52
327 326 327 328 330 338 339 324 318 313 311 310 310 313 314 308 302 297 290 284 272 276 280 280 272 272 275 272 265 250 246 252 252 239 254 283 298 295 280 263 256 259 264
333 330 330 332 339 341 336 335 332 326 319 312 308 305 301 297 294 293 289 280 273 270 268 268 267 266 268 270 266 261 258 261 259 248 234 225 236 251 253 242 235 235 232
334 336 336 336 342 343 341 340 339 335 334 333 327 318 309 301 294 288 283 280 277 273 268 264 262 262 262 261 259 259 264 268 269 261 239 218 217 222 227 232 227 227 226
337 346 343 341 342 343 343 341 339 335 339 343 341 336 328 320 311 301 292 283 277 271 269 266 260 256 254 255 256 258 260 260 260 260 244 214 204 213 211 215 216 217 221
Height
1544 1539 1534 1529 1524 1519 1513 1508 1502 1497 1492 1486 1480 1474 1468 1463 1458 1453 1448 1444 1439 1436 1433 1429 1425 1421 1417 1414 1411 1410 1410 1410 1408 1405 1406 1408 1411 1414 1418 1423 1426 1429 1432
1541 1536 1531 1526 1520 1515 1509 1504 1498 1493 1489 1483 1477 1471 1465 1460 1454 1449 1444 1440 1436 1433 1429 1425 1421 1416 1412 1408 1404 1402 1401 1401 1402 1401 1402 1404 1406 1410 1414 1418 1421 1424 1427
1539 1534 1528 1523 1517 1511 1506 1500 1495 1490 1485 1480 1474 1468 1462 1456 1451 1446 1441 1437 1434 1431 1427 1422 1418 1413 1408 1402 1398 1395 1393 1393 1394 1396 1396 1399 1401 1405 1408 1412 1415 1419 1421
1537 1531 1525 1520 1514 1508 1502 1496 1492 1487 1482 1477 1472 1466 1459 1453 1447 1442 1437 1433 1431 1428 1425 1420 1416 1411 1405 1398 1393 1389 1387 1387 1388 1390 1391 1393 1396 1399 1402 1406 1410 1414 1416
1535 1529 1523 1517 1511 1505 1499 1494 1489 1485 1480 1475 1470 1463 1457 1451 1444 1439 1432 1430 1429 1427 1423 1419 1414 1410 1403 1397 1391 1386 1383 1382 1383 1384 1387 1388 1391 1393 1396 1400 1405 1408 1411
1533 1527 1521 1515 1509 1503 1497 1492 1487 1482 1478 1473 1467 1461 1455 1449 1442 1435 1428 1428 1427 1425 1422 1419 1414 1409 1403 1396 1391 1385 1382 1380 1379 1379 1381 1382 1384 1388 1391 1395 1400 1403 1407
1532 1526 1520 1513 1507 1501 1496 1491 1486 1481 1476 1471 1466 1461 1455 1448 1441 1436 1431 1429 1428 1426 1423 1419 1415 1410 1404 1397 1391 1386 1382 1379 1378 1376 1377 1378 1380 1382 1384 1388 1393 1398 1402
1531 1524 1518 1512 1506 1500 1495 1490 1485 1480 1476 1471 1466 1461 1456 1449 1443 1438 1434 1432 1430 1428 1425 1422 1418 1412 1407 1400 1394 1388 1383 1379 1378 1376 1376 1376 1377 1377 1379 1383 1387 1393 1398
1529 1522 1516 1511 1505 1500 1494 1489 1485 1480 1475 1471 1467 1462 1457 1451 1446 1442 1438 1435 1432 1430 1427 1424 1421 1416 1411 1404 1397 1391 1386 1383 1380 1378 1376 1374 1373 1373 1374 1379 1384 1387 1391
1528 1522 1516 1511 1505 1500 1494 1489 1485 1480 1476 1471 1467 1463 1459 1454 1450 1446 1441 1438 1435 1433 1430 1427 1424 1420 1414 1408 1402 1396 1391 1386 1383 1379 1376 1373 1372 1371 1372 1374 1378 1382 1384
1528 1522 1516 1511 1505 1500 1495 1490 1485 1480 1475 1471 1467 1463 1461 1458 1453 1450 1446 1442 1439 1436 1433 1430 1427 1424 1418 1413 1408 1403 1399 1393 1388 1383 1380 1376 1373 1372 1371 1372 1374 1376 1379
1528 1522 1517 1511 1506 1501 1495 1490 1485 1480 1475 1471 1467 1464 1462 1459 1456 1453 1450 1446 1443 1439 1437 1434 1431 1427 1422 1417 1413 1408 1404 1398 1393 1389 1385 1382 1379 1376 1374 1374 1373 1373 1376
1528 1523 1518 1512 1507 1502 1496 1490 1485 1480 1476 1472 1468 1465 1463 1461 1458 1455 1451 1448 1445 1442 1439 1437 1433 1429 1425 1420 1417 1412 1407 1403 1399 1395 1393 1391 1389 1386 1381 1379 1377 1376 1377
1529 1524 1519 1513 1508 1503 1497 1492 1487 1482 1477 1473 1470 1467 1465 1463 1460 1457 1453 1450 1447 1444 1441 1438 1435 1432 1428 1424 1420 1416 1413 1410 1407 1404 1402 1399 1396 1393 1389 1386 1384 1383 1383
1530 1525 1520 1514 1510 1505 1499 1494 1490 1485 1481 1477 1472 1469 1467 1465 1463 1461 1458 1454 1452 1449 1445 1441 1438 1434 1431 1428 1425 1422 1419 1416 1414 1411 1409 1406 1403 1400 1397 1395 1394 1393 1391
1530 1526 1521 1516 1512 1507 1501 1495 1492 1488 1484 1479 1476 1473 1470 1468 1466 1463 1461 1458 1456 1453 1448 1445 1442 1439 1436 1433 1431 1428 1425 1422 1420 1418 1416 1414 1411 1409 1407 1405 1404 1404 1404
1533 1527 1523 1518 1513 1508 1503 1497 1492 1488 1485 1481 1478 1476 1473 1470 1467 1465 1463 1461 1458 1455 1451 1449 1446 1443 1440 1437 1435 1432 1430 1428 1426 1424 1422 1421 1419 1418 1416 1415 1414 1414 1415
1535 1530 1525 1520 1516 1511 1506 1500 1496 1491 1486 1483 1479 1477 1474 1471 1469 1467 1464 1461 1459 1456 1454 1451 1449 1446 1443 1441 1438 1435 1433 1432 1430 1428 1427 1426 1425 1424 1424 1423 1423 1424 1424
1536 1531 1527 1522 1518 1513 1508 1503 1498 1494 1489 1485 1481 1477 1474 1471 1469 1467 1465 1462 1459 1457 1455 1453 1450 1448 1445 1443 1440 1438 1436 1434 1433 1431 1430 1430 1429 1429 1429 1428 1429 1430 1430
1538 1534 1529 1524 1519 1515 1510 1505 1500 1495 1491 1487 1482 1478 1475 1471 1469 1466 1464 1462 1460 1458 1456 1454 1451 1449 1447 1444 1442 1440 1438 1436 1435 1433 1432 1432 1432 1431 1431 1431 1432 1432 1432
1539 1535 1531 1526 1521 1517 1512 1508 1503 1498 1493 1488 1484 1480 1477 1473 1469 1466 1463 1461 1459 1457 1455 1453 1451 1449 1447 1445 1444 1442 1440 1438 1437 1436 1434 1433 1432 1432 1432 1432 1432 1433 1433
1540 1536 1532 1527 1523 1518 1514 1510 1505 1500 1495 1489 1484 1480 1477 1473 1469 1465 1462 1460 1457 1455 1454 1452 1450 1448 1447 1445 1444 1442 1441 1440 1438 1437 1435 1434 1433 1432 1432 1431 1432 1432 1432
1541 1537 1533 1528 1524 1519 1515 1510 1506 1501 1496 1491 1485 1480 1476 1471 1468 1464 1460 1457 1454 1452 1451 1449 1447 1446 1445 1443 1442 1441 1440 1439 1438 1437 1435 1434 1433 1432 1432 1432 1432 1432 1433
1541 1537 1533 1528 1523 1519 1515 1510 1506 1501 1497 1492 1487 1481 1476 1471 1466 1462 1457 1454 1451 1448 1446 1444 1443 1442 1441 1440 1439 1438 1437 1437 1436 1435 1434 1433 1432 1431 1431 1431 1431 1431 1431
1540 1537 1533 1528 1523 1519 1514 1510 1506 1501 1497 1493 1488 1483 1477 1471 1466 1460 1455 1451 1447 1443 1441 1439 1437 1436 1435 1434 1433 1433 1433 1433 1432 1432 1432 1431 1431 1430 1429 1429 1428 1428 1428
1540 1536 1533 1528 1524 1519 1514 1510 1506 1501 1497 1493 1488 1483 1478 1472 1466 1460 1454 1449 1444 1439 1436 1433 1430 1429 1427 1426 1426 1426 1426 1427 1427 1427 1427 1427 1427 1427 1427 1426 1426 1426 1426